Location: Pedholt
(56.0260°N, 10.2097°E)
Time: 02:35:32
(UTC+00:00)

SR - Pass Details

Date: 31 July 2021
Orbit: 581 x 874 km, 66.7° (Epoch: 21 September)

Event Time Altitude Azimuth Distance (km) Brightness Sun altitude
Rises 08:01:24 0° 253° (WSW) 3,400 ? 36.3°
Reaches altitude 10° 08:04:05 10° 260° (W) 2,433 ? 36.7°
Maximum altitude 08:09:22 41° 331° (NNW) 1,134 ? 37.3°
Drops below altitude 10° 08:14:19 10° 41° (NE) 2,267 ? 38.0°
Sets 08:16:44 0° 49° (NE) 3,142 ? 38.3°
